Regional Weather Roundup
Issued by NWS

Home | Current Version | Previous Version | Text Only | Print | Product List | Glossary On
Versions: 1 2 3 4 5 6 7 8 9 10 11 12 13 14 15 16 17 18 19 20 21 22 23 24 25 26 27 28 29 30 31 32 33 34 35 36 37 38 39 40 41 42 43 44 45 46 47 48 49 50
000
ASUS46 KLOX 311112
RWRCA

SOUTHERN CALIFORNIA WEATHER ROUNDUP
NATIONAL WEATHER SERVICE OXNARD CALIFORNIA
300 AM PST SAT JAN 31 2015

NOTE: "FAIR" INDICATES FEW OR NO CLOUDS BELOW 12,000 FEET WITH NO
SIGNIFICANT WEATHER AND/OR OBSTRUCTIONS TO VISIBILITY.

  -  STATIONS PRECEEDED BY AN ASTERISK (*) ARE NOT NWS OR FAA
     STATIONS AND ARE NOT SUBJECT TO NWS AND FAA QUALITY CONTROL.

CAZ041-042-087-311200-
LA AND ORANGE COUNTY COASTAL AREAS


CITY           SKY/WX    TMP DP  RH WIND       PRES   REMARKS
L.A. DOWNTOWN  MOCLDY    59  55  87 E3        29.84F
L.A. AIRPORT   MOCLDY    56  55  97 CALM      29.84F
LONG BEACH     MOCLDY    58  55  90 CALM      29.84F

CITY           SKY/WX    TMP DP  RH WIND       PRES   REMARKS
AVALON           N/A     55 N/A N/A MISG        N/A
FULLERTON      MOCLDY    59  54  83 E3        29.84F
HAWTHORNE      PTCLDY    59  56  89 CALM      29.85F
*LEO CARRILLO    N/A     52  45  77 N6          N/A
*LOS ALAMITOS  CLOUDY    58  57  97 E3        29.84F
*REDONDO BEACH   N/A     54  51  89 CALM      29.84F
SANTA ANA      MOCLDY    60  53  77 CALM      29.85S
STA MONICA APT MOCLDY    58  55  90 CALM      29.85F
*UCLA            N/A     57  54  88 CALM      29.81F

$$

CAZ547-548-048-311200-
LA COUNTY VALLEYS AND INLAND EMPIRE


CITY           SKY/WX    TMP DP  RH WIND       PRES   REMARKS
BURBANK        MOCLDY    54  51  90 CALM      29.84F
VAN NUYS       CLOUDY    56  53  90 CALM      29.84F

CITY           SKY/WX    TMP DP  RH WIND       PRES   REMARKS
CORONA AIRPORT PTSUNNY   48  48 100 CALM      29.86F
CHINO          MOCLDY    52  49  89 CALM      29.87S
*CLAREMONT       N/A     52  50  94 CALM        N/A
MARCH AFB      MOCLDY    45  45 100 CALM      29.85F
*NORTHRIDGE      N/A     55  52  88 CALM        N/A
ONTARIO        CLOUDY    54  50  86 CALM      29.85F
*PASADENA        N/A     57  55  94 E2          N/A
RIVERSIDE      MOCLDY    53  51  93 CALM      29.86S
SAN BERNARDINO NOT AVBL
*SAN RAFAEL HI   N/A     51  51 100 SW3         N/A
*SAUGUS          N/A     52  48  86 E6          N/A
*WHITEMAN AP   NOT AVBL
*WOODLAND HILL   N/A     52  48  87 N1          N/A

$$

CAZ054-055-311200-
LA AND SAN BERNARDINO COUNTY MOUNTAINS


CITY           SKY/WX    TMP DP  RH WIND       PRES   REMARKS
*ACTON           N/A     48  46  92 N5          N/A
*BIG BEAR AIRP CLOUDY    34  34 100 S6        29.89F WCI  29
*BIG PINES       N/A     34  33  98 CALM        N/A
MT WILSON NWS    N/A     39  30  70 S1          N/A
SANDBERG       CLOUDY    47  35  63 N12       29.89F

$$

CAZ028-029-059-060-099-311200-
ANTELOPE VALLEY AND SURROUNDING AREAS


CITY           SKY/WX    TMP DP  RH WIND       PRES   REMARKS
LANCASTER      CLOUDY    49  40  71 NW8       29.88S
PALMDALE       CLOUDY    49  43  80 W3        29.88S
*POPPY PARK      N/A     51  41  69 NW7         N/A

CITY           SKY/WX    TMP DP  RH WIND       PRES   REMARKS
29 PALMS       CLOUDY    51  47  86 W13       29.92S
BARSTOW/DAGGET CLOUDY    51  48  89 W6        29.87S
BISHOP         CLOUDY    45  30  55 N15G26    29.98S
CHINA LAKE     MOCLDY    45  44  97 E3        29.87S
EDWARDS AFB    MOCLDY    48  48 100 E2        29.86S
MOJAVE         CLOUDY    48  46  93 N5        29.88F
NEEDLES        CLOUDY    55  49  80 NW5       29.83S
VICTORVILLE    CLOUDY    48  41  76 W3        29.87S

$$

CAZ039-040-311200-
VENTURA AND SANTA BARBARA COUNTY COAST


CITY           SKY/WX    TMP DP  RH WIND       PRES   REMARKS
CAMARILLO      CLEAR     50  48  93 CALM      29.84S FOG
NWS OXNARD       N/A     50  47  90 CALM      29.83S
OXNARD AIRPORT CLEAR     52  48  86 E3        29.84S
*POINT MUGU    MOCLDY    54  50  86 NE5       29.85S
SBA APT/GOLETA CLEAR     48  46  93 CALM      29.83S
*SANTA BARBARA   N/A     53  48  83 CALM      29.91S
*VENTURA         N/A     51  48  89 CALM      29.87S

$$

CAZ044-045-311200-
VENTURA COUNTY VALLEYS


CITY           SKY/WX    TMP DP  RH WIND       PRES   REMARKS
*SIMI VALLEY     N/A     52  49  88 CALM      29.81F
*OJAI            N/A     41  38  92 CALM      29.81S
*FILLMORE        N/A     47  44  88 CALM      29.74F

$$

CAZ053-311200-
VENTURA COUNTY MOUNTAINS


CITY           SKY/WX    TMP DP  RH WIND       PRES   REMARKS
*LOCKWOOD VLY    N/A     28  28 100 MISG        N/A
*ROSE VALLEY     N/A     32  34 100 MISG        N/A

$$

CAZ034-035-036-311200-
CENTRAL COAST AND SANTA YNEZ VALLEY


CITY           SKY/WX    TMP DP  RH WIND       PRES   REMARKS
SAN LUIS OBISP FOG       48  48 100 CALM      29.88S VSB 1/4
SANTA MARIA    CLOUDY    54  51  90 CALM      29.88F FOG

CITY           SKY/WX    TMP DP  RH WIND       PRES   REMARKS
*CAL POLY SLO    N/A     46  46 100 SW1         N/A
*LOMPOC        CLOUDY    55  48  76 CALM      29.88S
*PISMO BEACH     N/A     49  48  96 NE2       29.88S
*SANTA YNEZ    CLOUDY    52  48  87 CALM      29.87S

$$

CAZ037-038-051-311200-
SAN LUIS OBISPO COUNTY INTERIOR AND CUYAMA VALLEY


CITY           SKY/WX    TMP DP  RH WIND       PRES   REMARKS
*CUYAMA          N/A     42  37  85 CALM      29.87F
PASO ROBLES    FOG       47  45  93 CALM      29.89S VSB 1/4

$$

CAZ032-033-061-311200-
SOUTHERN DESERTS


CITY           SKY/WX    TMP DP  RH WIND       PRES   REMARKS
BLYTHE         PTCLDY    53  52  96 NW7       29.81F
IMPERIAL       PTCLDY    50  46  86 CALM      29.80F
PALM SPRINGS   MOCLDY    58  51  78 SW5       29.84S
THERMAL        MOCLDY    53  49  86 W6        29.80S

$$

ELSEWHERE ACROSS THE WESTERN UNITED STATES AND MEXICO


CITY           SKY/WX    TMP DP  RH WIND       PRES   REMARKS
DENVER, CO     CLOUDY    32  25  75 CALM      29.93F
GRAND CANYON,  CLOUDY    37  37 100 CALM      29.87F
HONOLULU, HI   MOCLDY    68  63  83 NW6       30.00S
KAHULUI, MAUI  PTCLDY    72  66  83 NW3       29.99F
LAKE TAHOE, CA CLOUDY    35  24  64 VRB5      30.04F WCI  31
LAS VEGAS, NV  LGT RAIN  49  46  90 S6        29.83S
MAMMOTH LAKES, CLOUDY    32  27  80 W8        30.06R WCI  25
MEXICO CITY, M PTCLDY    43  36  75 E2        30.27F
PHOENIX, AZ    CLOUDY    56  53  90 E5        29.79F
PORTLAND, OR   CLEAR     34  33  96 CALM      30.24R
RENO, NV       PTCLDY    32  26  78 SW3       30.14R
SALT LAKE CITY CLOUDY    39  34  82 W5        29.96S
SAN DIEGO, CA  MOCLDY    60  54  80 E3        29.87F
SAN FRANCISCO, CLEAR     51  48  89 CALM      29.92S
SAN JOSE, CA   PTCLDY    46  44  93 S3        29.91F
SEATTLE, WA    FOG       39  38  96 NE3       30.26S VSB 1/8
TIJUANA, MEX   MOCLDY    54  46  76 CALM      29.88

$$

STATION/POSITION TIME  TEMP    WIND        PRES    VSBY  WAVE
                       AIR SEA DIR/SP/G                  HT/PER
                 (UTC) (F)     (DEG/KT/KT) (MB)    (MI)  (FT/S)
POINT ARGUELLO B NOT AVBL
WEST SANTA BARBA 1100   58 60  320/ 19/ 23 1009.9F         8/15
POINT CONCEPTION NOT AVBL
EAST SANTA BARBA NOT AVBL
SANTA MONICA BAY 1100   60 62  100/  4/  4 1010.9S         4/16


USA.gov is the U.S. government's official web portal to all federal, state and local government web resources and services.